Preview of NWS' New Version of Forecast
This preview is not operational and should not be used for support decisions.

Regional Weather Roundup (RWR)

Issued by National Weather Service (NWS)

                            
000
ASUS45 KABQ 170410
RWRNM 
NEW MEXICO REGIONAL WEATHER ROUNDUP
NATIONAL WEATHER SERVICE ALBUQUERQUE NM
900 PM MST SAT FEB 16 2019

NOTE: "FAIR" MEANS FEW OR NO CLOUDS BELOW 12,000 FEET AGL WITH NO
       SIGNIFICANT WEATHER OR OBSTRUCTIONS TO VISION.

      THIS PRODUCT IS RELEASED AS TWO VERSIONS.  ONE VERSION NEAR
      THE TOP OF THE HOUR CONTAINING PRELIMINARY DATA FROM ALBUQUERQUE
      AND OTHER STATIONS.  A FINAL VERSION WITH ADDITIONAL DATA IS 
      ISSUED ABOUT 10 MINUTES AFTER THE HOUR.
 
NMZ501-503-504-510>518-170500-
NORTHWEST PLATEAU/NORTHCENTRAL MOUNTAINS
  
CITY           SKY/WX    TMP DP  RH WIND       PRES   REMARKS
FARMINGTON     MOCLDY    27  21  78 CALM      29.82R                  
LOS ALAMOS     FAIR      27   8  44 NW5       29.79R WCI  21          
SANTA FE       FAIR      26  17  68 NW6       29.79R WCI  19          
TAOS           FAIR      26  13  57 CALM      29.79R                  
ANGEL FIRE       N/A     17   8  70 W7        29.75R WCI   7          

$$
NMZ402-403-502-505>509-170500-
WESTCENTRAL MOUNTAINS/SOUTHWEST MOUNTAINS
  
CITY           SKY/WX    TMP DP  RH WIND       PRES   REMARKS
GALLUP         FAIR      27  17  66 W6        29.84R WCI  20          
GRANTS         CLOUDY    26  20  77 NW9       29.85R WCI  17          
SILVER CITY    FAIR      35  24  63 NW9       29.90R WCI  27          

$$
NMZ407-409-411-412-170500-
SOUTHERN DESERTS
  
CITY           SKY/WX    TMP DP  RH WIND       PRES   REMARKS
DEMING         FAIR      44  23  43 NW15G26   29.87R                  
LAS CRUCES     FAIR      47  24  40 NW17G24   29.85R                  
HOLLOMAN AFB   FAIR      46  18  33 W9        29.84R                  
ALAMOGORDO     FAIR      46  18  31 MISG      29.84R                  
T OR C         FAIR      43  18  36 NW12      29.85R                  

$$
NMZ519>523-170500-
CENTRAL VALLEYS/CENTRAL HIGHLANDS
  
CITY           SKY/WX    TMP DP  RH WIND       PRES   REMARKS
ALBUQUERQUE    FAIR      35  16  45 N8        29.83R WCI  29          
DOUBLE EAGLE   PTCLDY    28  16  59 NW5       29.83R WCI  23          
MORIARTY ARPT  FAIR      32  15  50 W14       29.81R WCI  22          
CLINES CORNERS FAIR      26  11  52 W16       29.78R WCI  14          
BELEN          FAIR      33  20  59 W9        29.85R WCI  26          
SOCORRO        FAIR      40  22  47 NW9G21    29.85R WCI  34          

$$
NMZ524>526-539-540-170500-
SOUTHCENTRAL MOUNTAINS
  
CITY           SKY/WX    TMP DP  RH WIND       PRES   REMARKS
RUIDOSO        NOT AVBL                                               

$$
NMZ527>531-170500-
NORTHEAST HIGHLANDS/NORTHEAST PLAINS
  
CITY           SKY/WX    TMP DP  RH WIND       PRES   REMARKS
LAS VEGAS      FAIR      23   9  55 E6        29.75R WCI  16          
RATON          FAIR      23   8  52 CALM      29.71R                  
CLAYTON        FAIR      24  18  77 N10       29.73R WCI  14          

$$
NMZ532>537-170500-
EASTCENTRAL PLAINS
  
CITY           SKY/WX    TMP DP  RH WIND       PRES   REMARKS
SANTA ROSA     FAIR      38  10  32 W10       29.76R WCI  30          
TUCUMCARI      FAIR      39  10  30 NW14      29.71R WCI  31          
CANNON AFB     FAIR      42   9  25 NW18      29.73R                  
CLOVIS AIRPORT FAIR      43  11  27 NW17      29.73R                  

$$
NMZ028-029-538-170500-
SOUTHEAST PLAINS
  
CITY           SKY/WX    TMP DP  RH WIND       PRES   REMARKS
ROSWELL        FAIR      49  19  30 NW18      29.76R                  
ARTESIA        FAIR      46  18  31 N15       29.77R                  
CARLSBAD       FAIR      50  17  27 NW7       29.75R                  
HOBBS          FAIR      54   7  15 W18G24    29.74R                  


$$